Flag for Indonesia

Past Weather in 3°34'59"N, 98°40'00"E, Indonesia — Yesterday and Last 2 Weeks

Currently: 81 °F. Partly sunny. (Weather station: Medan / Polonia, Indonesia). See more current weather

Past Weather in 3°34'59"N, 98°40'00"E — Graph

°F

3°34'59"N, 98°40'00"E Temperature Yesterday

Maximum temperature yesterday: 90 °F (at 2:00 pm)
Minimum temperature yesterday: 77 °F (at 4:00 am)
Average temperature yesterday: 83 °F

High & Low Weather Summary for the Past Weeks

 TemperatureHumidityPressure
High91 °F (Feb 21, 12:30 pm)100% (Feb 17, 6:30 am)29.92 "Hg (Feb 17, 6:30 am)
Low75 °F (Feb 19, 2:30 am)55% (Feb 17, 3:30 pm)29.71 "Hg (Feb 28, 4:00 pm)
Average83 °F84%29.83 "Hg
* Reported Feb 16 8:00 am — Mar 2 8:00 am, 3°34'59"N, 98°40'00"E. Weather by CustomWeather, © 2024

Note: Actual official high and low records may vary slightly from our data, if they occured in-between our weather recording intervals... More about our weather records

3°34'59"N, 98°40'00"E Weather History for the Previous 24 Hours

Scroll right to see more
 ConditionsComfort  
Time TempWeatherWind HumidityBarometerVisibility
8:00 am
Sat, Mar 2
81 °FPartly sunny.7 mph89%29.86 "Hg3 mi
7:30 am79 °FPartly sunny.7 mph94%29.83 "Hg3 mi
7:00 am79 °FScattered clouds.5 mph94%29.83 "Hg2 mi
6:30 am79 °FFog.6 mph94%29.80 "Hg2 mi
6:00 am79 °FFog.5 mph94%29.80 "Hg3 mi
5:30 am79 °FFog.3 mph94%29.80 "Hg3 mi
5:00 am79 °FFog.5 mph94%29.80 "Hg2 mi
4:30 am79 °FFog.5 mph94%29.77 "Hg2 mi
3:30 am79 °FFog.3 mph100%29.80 "Hg2 mi
3:00 am79 °FFog.5 mph100%29.80 "Hg2 mi
2:30 am79 °FFog.2 mph100%29.80 "Hg2 mi
1:30 am81 °FFog.5 mph94%29.80 "Hg2 mi
1:00 am81 °FPassing clouds.5 mph94%29.83 "Hg2 mi
12:30 am81 °FPassing clouds.3 mph94%29.86 "Hg2 mi
12:00 am81 °FPassing clouds.5 mph94%29.83 "Hg2 mi
11:30 pm
Fri, Mar 1
81 °FPassing clouds.3 mph94%29.86 "Hg3 mi
11:00 pm81 °FPassing clouds.2 mph94%29.86 "Hg3 mi
10:30 pm81 °FPassing clouds.2 mph94%29.86 "Hg3 mi
10:00 pm82 °FPassing clouds.3 mph89%29.83 "Hg4 mi
9:30 pm81 °FPassing clouds.2 mph94%29.83 "Hg4 mi
9:00 pm82 °FPassing clouds.3 mph89%29.83 "Hg4 mi
8:30 pm82 °FPassing clouds.5 mph84%29.83 "Hg5 mi
7:30 pm84 °FPassing clouds.6 mph79%29.80 "Hg4 mi
7:00 pm84 °FPassing clouds.9 mph79%29.77 "Hg4 mi
6:00 pm86 °FPassing clouds.10 mph75%29.74 "Hg4 mi
5:00 pm88 °FPassing clouds.17 mph70%29.74 "Hg5 mi
4:30 pm88 °FPassing clouds.16 mph70%29.74 "Hg6 mi
4:00 pm88 °FPassing clouds.17 mph70%29.74 "Hg6 mi
3:30 pm90 °FPassing clouds.14 mph67%29.77 "Hg6 mi
3:00 pm90 °FScattered clouds.14 mph71%29.77 "Hg5 mi
2:30 pm90 °FScattered clouds.14 mph71%29.77 "HgN/A
2:00 pm90 °FScattered clouds.17 mph71%29.80 "HgN/A
Weather by CustomWeather, © 2024

See weather overview